Regional Weather Roundup
Issued by NWS

Home | Current Version | Previous Version | Graphics & Text | Print | Product List | Glossary On
Versions: 1 2 3 4 5 6 7 8 9 10 11 12 13 14 15 16 17 18 19 20 21 22 23 24 25 26 27 28 29 30 31 32 33 34 35 36 37 38 39 40 41 42 43 44 45 46 47 48 49 50
863
ASUS43 KMPX 231910
RWRMN
WEATHER ROUNDUP FOR MINNESOTA
NATIONAL WEATHER SERVICE TWIN CITIES/CHANHASSEN MN
200 PM CDT SUN APR 23 2017


NOTE: "FAIR" INDICATES FEW OR NO CLOUDS BELOW 12,000 FEET WITH NO
SIGNIFICANT WEATHER AND/OR OBSTRUCTIONS TO VISIBILITY. N/A MEANS
CURRENT SKY AND/OR WEATHER CONDITIONS ARE NOT AVAILABLE.

MNZ060>063-068>070-232000-
   Twin Cities Metro

CITY           SKY/WX    TMP DP  RH WIND       PRES   REMARKS
TWIN CITIES    PTSUNNY   64  41  42 CALM      30.01F
ST PAUL        MOSUNNY   65  41  41 VRB6      30.01F
CRYSTAL        MOSUNNY   62  39  42 E7        30.00F
BLAINE         PTSUNNY   63  45  51 NE8       30.02F
LAKEVILLE      MOSUNNY   64  37  36 W5        30.00F
EDEN PRAIRIE   MOSUNNY   67  39  35 CALM      29.99F
SOUTH ST PAUL  SUNNY     65  41  42 SE3       30.00F
LAKE ELMO      FAIR      63  43  48 CALM      30.02F
$$
MNZ001>005-007-008-013>017-022>024-027-028-232000-
   Northwest Minnesota

CITY           SKY/WX    TMP DP  RH WIND       PRES   REMARKS
BEMIDJI        LGT SNOW  30  27  88 E9        30.13F WCI  22
HALLOCK        CLOUDY    37  10  32 E14       30.18F
ROSEAU         CLOUDY    36  16  44 E16       30.19F
WARROAD        CLOUDY    34  18  51 NE14      30.20F WCI  24
THIEF RVR FALL LGT RAIN  33  17  51 E15       30.15F WCI  23
CROOKSTON      LGT SNOW  32  27  80 E13G21    30.15F WCI  22
FOSSTON        LGT SNOW  30  27  86 E16       30.12F WCI  19
DETROIT LAKES  CLOUDY    39  32  75 E10       30.06F
MOORHEAD       CLOUDY    41  34  75 NE14      30.05F
PARK RAPIDS    CLOUDY    35  27  72 E9G18     30.09F WCI  28
MAHNOMEN       CLOUDY    33  29  86 E16       30.09F WCI  22
$$
MNZ006-009>011-018-025>026-232000-
   North Central Minnesota

CITY           SKY/WX    TMP DP  RH WIND       PRES   REMARKS
BAUDETTE       CLOUDY    36  11  35 VRB7      30.17F
FLAG ISLAND    CLOUDY    32  12  43 N12       30.20F WCI  23
INTL FALLS     CLOUDY    35  12  38 VRB3      30.18F
WASKISH        CLOUDY    36  18  48 E9        30.16F
BIG FORK       CLOUDY    37  19  48 E5        30.15F
LONGVILLE      CLOUDY    32  32 100 NE7       30.12F WCI  26
GRAND RAPIDS   LGT RAIN  34  27  75 E7        30.16F WCI  28
CRANE LAKE     CLOUDY    36  16  44 CALM      30.19F
ORR            CLOUDY    36  16  44 MISG      30.14F
COOK           CLOUDY    36  18  48 SE3       30.16F
WALKER         CLOUDY    31  26  81 NE8       30.12F WCI  24
$$
MNZ012-019>021-037-232000-
   Northeast Minnesota

CITY           SKY/WX    TMP DP  RH WIND       PRES   REMARKS
DULUTH         FLURRIES  34  31  88 E16       30.14F WCI  24
ELY            CLOUDY    36  19  51 NE7       30.15F
HIBBING        LGT SNOW  31  26  82 NE6       30.16F VSB 3/4 WCI  25
EVELETH        FLURRIES  35  17  48 S5        30.17S WCI  31
DULUTH HARBOR  CLOUDY    36  34  93 NE18      30.18F
TWO HARBORS    CLOUDY    37  30  75 E12       30.17S
SILVER BAY     CLOUDY    36  27  69 E7        30.17F
GRAND MARAIS     N/A     37  27  67 SE9       30.21F
G MARAIS ARPRT CLOUDY    34  19  55 SE10      30.15F WCI  26
$$
MNZ029>031-032-039>041-046>048-054>057-064-232000-
   West Central Minnesota

CITY           SKY/WX    TMP DP  RH WIND       PRES   REMARKS
FERGUS FALLS   CLOUDY    48  37  66 E10G22    30.00F
WHEATON        CLOUDY    61  41  48 E12G18    29.95F
MORRIS         PTSUNNY   64  43  45 SE10G17   29.94F
ALEXANDRIA     MOSUNNY   52  39  61 E17G23    30.01F
ELBOW LAKE     FAIR      54  40  60 SE15G22   29.99F
WADENA         CLOUDY    45  34  65 E12       30.05S
GLENWOOD       PTSUNNY   57  43  58 E16       30.00F
APPLETON       CLOUDY    64  37  36 CALM      29.95F
BENSON         CLOUDY    66  30  26 S10       29.97F
ORTONVILLE     PTSUNNY   61  41  48 SE7       29.94F
MADISON        CLOUDY    64  41  42 SE8       29.94F
WILLMAR        FAIR      64  43  45 E7        29.98F
$$
MNZ033>034-036-042>043-049>051-058-059-232000-
   Central Minnesota

CITY           SKY/WX    TMP DP  RH WIND       PRES   REMARKS
ST CLOUD       MOSUNNY   54  40  59 E8        30.03F
SAUK CENTRE    MOCLDY    51  40  66 E10       30.03F
PAYNESVILLE    CLOUDY    58  40  50 E6        30.01F
AITKIN         CLOUDY    41  32  70 NE12      30.09F
PINE RIVER     CLOUDY    36  30  80 NE10      30.13F
BRAINERD       CLOUDY    42  33  70 E10       30.08F
STAPLES        CLOUDY    45  32  61 E9G16     30.06F
LONG PRAIRIE   CLOUDY    48  37  66 NE12G17   30.04F
LITTLE FALLS   CLOUDY    46  36  66 E7        30.05F
LITCHFIELD     PTSUNNY   63  45  51 E7        30.00F
BUFFALO        CLOUDY    60  42  51 NE9       30.02F
MAPLE LAKE     CLOUDY    59  46  60 NE9       30.02F
HUTCHINSON     CLOUDY    64  42  44 S5        30.00F
$$
MNZ037-044-045-052-053-232000-
   East Central Minnesota

CITY           SKY/WX    TMP DP  RH WIND       PRES   REMARKS
PRINCETON      PTSUNNY   55  41  58 E8        30.05F
MORA           PTSUNNY   48  36  61 E7        30.09F
CAMBRIDGE      MOSUNNY   55  39  54 NE8       30.03F
RUSH CITY      MOSUNNY   52  38  59 NE7       30.06F
MOOSE LAKE     CLOUDY    37  32  81 NE8G17    30.11F
HINCKLEY       CLOUDY    46  36  66 E10G17    30.09F
CLOQUET        CLOUDY    36  30  80 E10       30.13F
MCGREGOR       CLOUDY    37  32  81 NE12      30.12F
$$
MNZ071>073-080-081-089-090-097-098-232000-
   Southwest Minnesota

CITY           SKY/WX    TMP DP  RH WIND       PRES   REMARKS
MONTEVIDEO     CLOUDY    66  39  37 S6        29.96F
GRANITE FALLS  PTSUNNY   67  40  37 S8        29.97F
CANBY          CLOUDY    71  31  22 SW12      29.93F
MARSHALL       CLOUDY    69  34  27 SW13G24   29.94F
REDWOOD FALLS  PTSUNNY   69  33  26 SW15G23   29.95F
OLIVIA         PTSUNNY   68  39  34 SW8       29.96F
PIPESTONE      CLOUDY    66  25  20 SW17G24   29.95F
WINDOM         CLOUDY    70  27  19 S15G21    29.97F
WORTHINGTON    MOSUNNY   68  31  25 S18G28    29.98F
JACKSON        CLOUDY    68  28  22 SW16G22   30.00F
TRACY          CLOUDY    69  35  29 S14G21    29.96F
SLAYTON        CLOUDY    66  31  27 SW16G25   29.97F
$$
MNZ065>067-074>077-082>085-091>093-232000-
   South Central Minnesota

CITY           SKY/WX    TMP DP  RH WIND       PRES   REMARKS
MANKATO        MOSUNNY   70  30  22 S10G23    29.98F
NEW ULM        MOSUNNY   68  34  28 SW13      29.97F
ST JAMES       MOSUNNY   70  30  23 S13G22    29.99F
FAIRMONT       MOSUNNY   69  27  20 S15G23    29.99F
GLENCOE        CLOUDY    65  43  44 S6        29.98F
FARIBAULT      MOSUNNY   68  36  30 CALM      30.01F
OWATONNA       MOSUNNY   70  30  23 SW10G17   30.00F
WASECA         SUNNY     70  32  24 SW12G21   30.01F
ALBERT LEA     SUNNY     66  28  24 SW9       30.01F
$$
MNZ078>079-086>088-094>096-232000-
   Southeast Minnesota

CITY           SKY/WX    TMP DP  RH WIND       PRES   REMARKS
ROCHESTER      SUNNY     69  35  28 W13       30.02F
RED WING       SUNNY     68  34  28 NW5       30.00F
STANTON        MOSUNNY   68  37  31 SW6       29.99F
DODGE CENTER   SUNNY     66  34  30 SW13      30.02F
WINONA         SUNNY     70  34  26 W6        30.02F
AUSTIN         SUNNY     68  30  24 SW14      30.02F
PRESTON        SUNNY     66  31  26 SW7       30.04F
$$
ABBREVIATIONS USED IN REMARKS
   TC - TEMPERATURES IN CELSIUS
  WCI - WIND CHILL INDEX
   HX - HEAT INDEX
  VSB - VISIBILITY
$$




USA.gov is the U.S. government's official web portal to all federal, state and local government web resources and services.